Location: Home
(42.5358°N, 72.7383°W)
Time: 08:58:26
(UTC-05:00)

deb Explorer IX - Pass Details

Date: 02 December 2021
Orbit: 544 x 1082 km, 38.8° (Epoch: 19 January)

Event Time Altitude Azimuth Distance (km) Brightness Sun altitude
Rises 10:56:19 0° 237° (WSW) 2,944 ? 24.6°
Reaches altitude 10° 10:58:55 10° 228° (SW) 1,962 ? 24.7°
Maximum altitude 11:02:57 34° 164° (SSE) 956 ? 24.8°
Drops below altitude 10° 11:06:42 10° 98° (E) 1,821 ? 24.9°
Sets 11:09:01 0° 89° (E) 2,699 ? 25.0°
